| time (UTC) | temp F | wind direction | speed MPH | gust MPH | rain 1hr in | rain 24hr in | rain mn in | humidity % | barometer mb |
| 20260502184914 | 60 | 137 | 1.0 | 3.0 | 0.01 | 0.13 | 0.10 | 97 | 1014.3 |
| 20260502184742 | 60 | 111 | 0.0 | 3.0 | 0.01 | 0.13 | 0.10 | 97 | 1014.3 |
| 20260502184626 | 60 | 80 | 2.0 | 3.0 | 0.00 | 0.12 | 0.09 | 97 | 1014.3 |
| 20260502184531 | 60 | 80 | 2.0 | 3.0 | 0.00 | 0.12 | 0.09 | 97 | 1014.2 |
| 20260502184224 | 60 | 80 | 2.0 | 3.0 | 0.00 | 0.12 | 0.09 | 97 | 1014.3 |
| 20260502184114 | 60 | 77 | 2.0 | 3.0 | 0.00 | 0.12 | 0.09 | 97 | 1014.3 |
| 20260502183712 | 60 | 84 | 3.0 | 3.0 | 0.01 | 0.12 | 0.09 | 97 | 1014.2 |
| 20260502183619 | 60 | 84 | 3.0 | 3.0 | 0.01 | 0.12 | 0.09 | 97 | 1014.3 |
| 20260502183530 | 60 | 84 | 2.0 | 3.0 | 0.01 | 0.12 | 0.09 | 97 | 1014.3 |
| 20260502183429 | 60 | 86 | 2.0 | 4.0 | 0.01 | 0.12 | 0.09 | 97 | 1014.4 |
| 20260502183356 | 60 | 132 | 2.0 | 4.0 | 0.01 | 0.12 | 0.09 | 97 | 1014.3 |
| 20260502183301 | 60 | 151 | 2.0 | 4.0 | 0.01 | 0.12 | 0.09 | 97 | 1014.4 |
| 20260502183141 | 60 | 125 | 2.0 | 4.0 | 0.01 | 0.12 | 0.09 | 97 | 1014.4 |
| 20260502182709 | 60 | 142 | 1.0 | 4.0 | 0.01 | 0.12 | 0.09 | 97 | 1014.5 |
| 20260502182601 | 60 | 149 | 1.0 | 3.0 | 0.01 | 0.13 | 0.09 | 97 | 1014.5 |
| 20260502182519 | 60 | 136 | 0.0 | 3.0 | 0.01 | 0.13 | 0.09 | 97 | 1014.5 |
| 20260502182351 | 60 | 229 | 0.0 | 2.0 | 0.01 | 0.13 | 0.09 | 97 | 1014.4 |
| 20260502182210 | 60 | 229 | 1.0 | 2.0 | 0.01 | 0.13 | 0.09 | 97 | 1014.4 |
| 20260502182108 | 60 | 229 | 1.0 | 2.0 | 0.01 | 0.13 | 0.09 | 97 | 1014.4 |
| 20260502181957 | 60 | 210 | 0.0 | 3.0 | 0.01 | 0.13 | 0.09 | 97 | 1014.5 |
| 20260502181915 | 60 | 210 | 0.0 | 3.0 | 0.01 | 0.13 | 0.09 | 97 | 1014.3 |
| 20260502181818 | 60 | 210 | 1.0 | 3.0 | 0.01 | 0.13 | 0.09 | 97 | 1014.2 |
| 20260502181311 | 60 | 105 | 2.0 | 3.0 | 0.01 | 0.13 | 0.09 | 97 | 1014.1 |
| 20260502181136 | 60 | 92 | 0.0 | 3.0 | 0.01 | 0.13 | 0.09 | 97 | 1014.1 |
| 20260502181027 | 60 | 60 | 0.0 | 3.0 | 0.01 | 0.13 | 0.09 | 97 | 1014.0 |
| 20260502180717 | 60 | 60 | 0.0 | 3.0 | 0.01 | 0.13 | 0.09 | 97 | 1014.0 |
| 20260502180624 | 60 | 60 | 0.0 | 3.0 | 0.01 | 0.13 | 0.09 | 97 | 1013.9 |
| 20260502180538 | 60 | 60 | 0.0 | 3.0 | 0.01 | 0.13 | 0.09 | 97 | 1013.9 |
| 20260502180128 | 60 | 61 | 2.0 | 3.0 | 0.01 | 0.13 | 0.09 | 97 | 1013.8 |
| 20260502170505 | 61 | 212 | 1.0 | 14.0 | 0.01 | 0.13 | 0.09 | 97 | 1015.0 |
| 20260502170428 | 61 | 259 | 1.0 | 14.0 | 0.01 | 0.13 | 0.09 | 97 | 1014.9 |
| 20260502170257 | 61 | 242 | 2.0 | 14.0 | 0.01 | 0.13 | 0.09 | 97 | 1015.0 |
| 20260502170104 | 61 | 232 | 3.0 | 14.0 | 0.01 | 0.13 | 0.09 | 97 | 1015.2 |
| 20260502164326 | 61 | 236 | 3.0 | 7.0 | 0.01 | 0.12 | 0.08 | 97 | 1015.4 |
| 20260502164053 | 61 | 265 | 0.0 | 3.0 | 0.01 | 0.12 | 0.08 | 97 | 1015.4 |
| 20260502163648 | 61 | 220 | 2.0 | 3.0 | 0.01 | 0.12 | 0.08 | 97 | 1015.5 |
| 20260502163550 | 61 | 242 | 2.0 | 3.0 | 0.01 | 0.12 | 0.08 | 97 | 1015.4 |
| 20260502163138 | 61 | 227 | 0.0 | 3.0 | 0.01 | 0.12 | 0.08 | 97 | 1015.6 |
| 20260502163029 | 61 | 227 | 2.0 | 3.0 | 0.01 | 0.12 | 0.08 | 97 | 1015.6 |
| 20260502162029 | 61 | 202 | 0.0 | 3.0 | 0.01 | 0.13 | 0.08 | 96 | 1015.7 |
| 20260502161948 | 61 | 202 | 0.0 | 3.0 | 0.01 | 0.13 | 0.08 | 96 | 1015.8 |
| 20260502161830 | 61 | 147 | 0.0 | 3.0 | 0.01 | 0.13 | 0.08 | 96 | 1015.8 |
| 20260502161737 | 61 | 147 | 1.0 | 3.0 | 0.01 | 0.13 | 0.08 | 96 | 1015.9 |
| 20260502161400 | 61 | 97 | 1.0 | 3.0 | 0.01 | 0.13 | 0.08 | 96 | 1016.0 |
| 20260502161230 | 61 | 80 | 1.0 | 2.0 | 0.01 | 0.13 | 0.08 | 96 | 1015.9 |
| 20260502161138 | 61 | 111 | 1.0 | 2.0 | 0.01 | 0.13 | 0.08 | 96 | 1015.8 |
| 20260502161050 | 61 | 111 | 1.0 | 2.0 | 0.01 | 0.13 | 0.08 | 96 | 1015.9 |
| 20260502160952 | 61 | 111 | 2.0 | 2.0 | 0.01 | 0.13 | 0.08 | 96 | 1015.9 |
| 20260502160843 | 61 | 129 | 1.0 | 2.0 | 0.01 | 0.13 | 0.08 | 96 | 1015.8 |
| 20260502160835 | 61 | 130 | 1.0 | 2.0 | 0.01 | 0.13 | 0.08 | 96 | 1015.8 |
| 20260502160719 | 61 | 154 | 1.0 | 2.0 | 0.01 | 0.13 | 0.08 | 96 | 1016.0 |
| 20260502160600 | 61 | 229 | 0.0 | 1.0 | 0.01 | 0.13 | 0.08 | 96 | 1015.9 |
| 20260502160535 | 61 | 229 | 0.0 | 1.0 | 0.01 | 0.13 | 0.08 | 96 | 1015.9 |
| 20260502160459 | 61 | 229 | 0.0 | 1.0 | 0.01 | 0.13 | 0.08 | 96 | 1015.9 |
| 20260502160408 | 61 | 229 | 0.0 | 3.0 | 0.01 | 0.13 | 0.08 | 96 | 1015.8 |
| 20260502160307 | 61 | 229 | 0.0 | 3.0 | 0.01 | 0.13 | 0.08 | 96 | 1015.9 |
| 20260502160205 | 61 | 229 | 0.0 | 3.0 | 0.01 | 0.13 | 0.08 | 95 | 1015.9 |
| 20260502152248 | 60 | 314 | 5.0 | 12.0 | 0.00 | 0.12 | 0.07 | 93 | 1015.2 |
| 20260502151902 | 60 | 318 | 5.0 | 12.0 | 0.00 | 0.12 | 0.07 | 92 | 1015.4 |
| 20260502151348 | 61 | 310 | 7.0 | 12.0 | 0.00 | 0.13 | 0.07 | 92 | 1015.7 |
| 20260502151319 | 61 | 290 | 7.0 | 12.0 | 0.00 | 0.13 | 0.07 | 92 | 1015.7 |
| 20260502151155 | 61 | 303 | 8.0 | 12.0 | 0.00 | 0.13 | 0.07 | 91 | 1015.7 |
| 20260502151023 | 61 | 300 | 8.0 | 11.0 | 0.00 | 0.13 | 0.07 | 91 | 1015.6 |
| 20260502150856 | 62 | 304 | 7.0 | 10.0 | 0.00 | 0.13 | 0.07 | 90 | 1015.9 |
| 20260502150830 | 62 | 274 | 6.0 | 9.0 | 0.00 | 0.13 | 0.07 | 90 | 1015.8 |
| 20260502150253 | 63 | 263 | 0.0 | 10.0 | 0.00 | 0.13 | 0.07 | 88 | 1016.6 |
| 20260502150214 | 63 | 277 | 0.0 | 10.0 | 0.00 | 0.13 | 0.07 | 88 | 1016.6 |
| 20260502150114 | 63 | 194 | 1.0 | 13.0 | 0.00 | 0.13 | 0.07 | 88 | 1016.8 |
| 20260502140110 | 73 | 36 | 2.0 | 7.0 | 0.01 | 0.13 | 0.07 | 68 | 1015.7 |
| 20260502130545 | 72 | 308 | 0.0 | 4.0 | 0.00 | 0.13 | 0.06 | 74 | 1016.0 |
| 20260502130107 | 72 | 348 | 2.0 | 4.0 | 0.00 | 0.13 | 0.06 | 73 | 1016.0 |
| 20260502123756 | 73 | 352 | 1.0 | 3.0 | 0.01 | 0.13 | 0.06 | 71 | 1016.4 |
| 20260502123326 | 73 | 28 | 0.0 | 1.0 | 0.01 | 0.13 | 0.06 | 73 | 1016.3 |
| 20260502123250 | 73 | 28 | 0.0 | 1.0 | 0.01 | 0.13 | 0.06 | 72 | 1016.3 |
| 20260502123143 | 73 | 28 | 0.0 | 1.0 | 0.01 | 0.13 | 0.06 | 72 | 1016.3 |
| 20260502122815 | 73 | 28 | 0.0 | 1.0 | 0.01 | 0.13 | 0.06 | 73 | 1016.3 |
| 20260502122404 | 72 | 28 | 0.0 | 4.0 | 0.01 | 0.13 | 0.06 | 74 | 1016.2 |
| 20260502122331 | 72 | 28 | 0.0 | 4.0 | 0.01 | 0.13 | 0.06 | 73 | 1016.2 |
| 20260502121927 | 72 | 40 | 0.0 | 6.0 | 0.01 | 0.13 | 0.06 | 76 | 1016.2 |
| 20260502121801 | 72 | 40 | 1.0 | 6.0 | 0.01 | 0.13 | 0.06 | 75 | 1016.2 |
| 20260502121240 | 71 | 83 | 4.0 | 8.0 | 0.01 | 0.13 | 0.06 | 75 | 1016.1 |
| 20260502121136 | 71 | 98 | 3.0 | 8.0 | 0.01 | 0.13 | 0.06 | 75 | 1016.1 |
| 20260502121049 | 71 | 117 | 3.0 | 8.0 | 0.01 | 0.13 | 0.06 | 75 | 1016.2 |
| 20260502120909 | 71 | 113 | 1.0 | 8.0 | 0.01 | 0.14 | 0.06 | 75 | 1016.2 |
| 20260502120723 | 71 | 40 | 4.0 | 8.0 | 0.01 | 0.14 | 0.06 | 75 | 1016.3 |
| 20260502120605 | 71 | 68 | 2.0 | 8.0 | 0.01 | 0.14 | 0.06 | 76 | 1016.4 |
| 20260502120118 | 71 | 60 | 1.0 | 5.0 | 0.01 | 0.14 | 0.06 | 77 | 1016.4 |
| 20260502115901 | 71 | 127 | 3.0 | 5.0 | 0.01 | 0.14 | 0.06 | 76 | 1016.4 |
| 20260502115721 | 71 | 150 | 2.0 | 5.0 | 0.01 | 0.14 | 0.06 | 77 | 1016.4 |
| 20260502115320 | 71 | 56 | 3.0 | 5.0 | 0.01 | 0.14 | 0.06 | 78 | 1016.4 |
| 20260502115141 | 70 | 119 | 1.0 | 5.0 | 0.01 | 0.14 | 0.06 | 78 | 1016.4 |
| 20260502115030 | 70 | 76 | 2.0 | 5.0 | 0.01 | 0.14 | 0.06 | 78 | 1016.4 |
| 20260502114957 | 70 | 49 | 2.0 | 5.0 | 0.01 | 0.14 | 0.06 | 78 | 1016.4 |
| 20260502114151 | 70 | 70 | 3.0 | 7.0 | 0.01 | 0.14 | 0.06 | 77 | 1016.5 |
| 20260502113644 | 70 | 100 | 2.0 | 7.0 | 0.01 | 0.14 | 0.06 | 78 | 1016.5 |
| 20260502113531 | 69 | 103 | 3.0 | 7.0 | 0.01 | 0.14 | 0.06 | 78 | 1016.5 |
| 20260502113115 | 69 | 74 | 4.0 | 6.0 | 0.01 | 0.14 | 0.06 | 77 | 1016.4 |
| 20260502112934 | 69 | 48 | 3.0 | 6.0 | 0.01 | 0.14 | 0.06 | 77 | 1016.5 |
| 20260502112905 | 69 | 63 | 3.0 | 6.0 | 0.01 | 0.14 | 0.06 | 76 | 1016.5 |
| 20260502112753 | 69 | 73 | 2.0 | 6.0 | 0.00 | 0.13 | 0.06 | 76 | 1016.5 |
| 20260502112617 | 69 | 77 | 2.0 | 8.0 | 0.00 | 0.13 | 0.06 | 76 | 1016.6 |
| 20260502112509 | 69 | 47 | 3.0 | 8.0 | 0.00 | 0.13 | 0.06 | 76 | 1016.5 |
| 20260502112436 | 69 | 84 | 3.0 | 8.0 | 0.00 | 0.13 | 0.06 | 76 | 1016.8 |
| 20260502112256 | 69 | 100 | 2.0 | 8.0 | 0.00 | 0.13 | 0.06 | 76 | 1016.6 |
| 20260502112119 | 69 | 116 | 3.0 | 8.0 | 0.00 | 0.13 | 0.06 | 77 | 1016.7 |
| 20260502112049 | 69 | 140 | 4.0 | 8.0 | 0.00 | 0.13 | 0.06 | 77 | 1016.6 |
| 20260502111930 | 69 | 94 | 4.0 | 8.0 | 0.00 | 0.13 | 0.06 | 76 | 1016.6 |
| 20260502111747 | 69 | 134 | 3.0 | 7.0 | 0.00 | 0.13 | 0.06 | 77 | 1016.7 |
| 20260502111629 | 69 | 73 | 2.0 | 7.0 | 0.00 | 0.13 | 0.06 | 78 | 1016.7 |
| 20260502111602 | 69 | 44 | 2.0 | 7.0 | 0.00 | 0.13 | 0.06 | 78 | 1016.6 |
| 20260502111421 | 69 | 79 | 1.0 | 6.0 | 0.00 | 0.13 | 0.06 | 79 | 1016.7 |
| 20260502111223 | 69 | 49 | 2.0 | 8.0 | 0.00 | 0.13 | 0.06 | 78 | 1016.7 |
| 20260502111106 | 69 | 118 | 2.0 | 11.0 | 0.00 | 0.13 | 0.06 | 78 | 1016.7 |
| 20260502110927 | 69 | 77 | 3.0 | 11.0 | 0.00 | 0.13 | 0.06 | 77 | 1016.6 |
| 20260502110528 | 68 | 59 | 5.0 | 11.0 | 0.00 | 0.13 | 0.06 | 77 | 1016.5 |
| 20260502110216 | 69 | 85 | 5.0 | 11.0 | 0.00 | 0.13 | 0.06 | 78 | 1016.5 |
| 20260502110055 | 69 | 65 | 4.0 | 11.0 | 0.00 | 0.13 | 0.06 | 78 | 1016.6 |
| 20260502105916 | 69 | 76 | 5.0 | 11.0 | 0.00 | 0.14 | 0.06 | 79 | 1016.5 |
| 20260502105803 | 69 | 74 | 4.0 | 11.0 | 0.00 | 0.14 | 0.06 | 79 | 1016.6 |
| 20260502105342 | 68 | 84 | 5.0 | 11.0 | 0.00 | 0.14 | 0.06 | 79 | 1016.7 |
| 20260502105209 | 68 | 74 | 7.0 | 11.0 | 0.00 | 0.14 | 0.06 | 78 | 1016.7 |
| 20260502105130 | 68 | 76 | 6.0 | 11.0 | 0.00 | 0.14 | 0.06 | 79 | 1016.7 |
| 20260502105015 | 68 | 82 | 6.0 | 9.0 | 0.00 | 0.14 | 0.06 | 80 | 1016.6 |
| 20260502104831 | 68 | 115 | 5.0 | 9.0 | 0.00 | 0.14 | 0.06 | 80 | 1016.7 |
| 20260502104716 | 68 | 76 | 5.0 | 9.0 | 0.00 | 0.14 | 0.06 | 80 | 1016.7 |
| 20260502104640 | 68 | 90 | 5.0 | 9.0 | 0.00 | 0.14 | 0.06 | 80 | 1016.7 |
| 20260502104507 | 68 | 83 | 6.0 | 9.0 | 0.00 | 0.14 | 0.06 | 80 | 1016.7 |
| 20260502104135 | 68 | 99 | 5.0 | 9.0 | 0.00 | 0.14 | 0.06 | 80 | 1016.7 |
| 20260502103627 | 67 | 67 | 4.0 | 9.0 | 0.00 | 0.14 | 0.06 | 80 | 1016.9 |
| 20260502103512 | 67 | 58 | 3.0 | 9.0 | 0.00 | 0.14 | 0.06 | 80 | 1016.8 |
| 20260502103048 | 67 | 85 | 5.0 | 9.0 | 0.00 | 0.14 | 0.06 | 80 | 1016.8 |
| 20260502102855 | 67 | 71 | 2.0 | 9.0 | 0.00 | 0.14 | 0.06 | 80 | 1016.8 |
| 20260502102832 | 67 | 82 | 4.0 | 9.0 | 0.00 | 0.14 | 0.06 | 80 | 1016.8 |
| 20260502102657 | 67 | 67 | 5.0 | 9.0 | 0.00 | 0.14 | 0.06 | 80 | 1016.9 |
| 20260502102513 | 67 | 72 | 6.0 | 9.0 | 0.00 | 0.14 | 0.06 | 80 | 1016.9 |
| 20260502102350 | 67 | 72 | 6.0 | 9.0 | 0.00 | 0.14 | 0.06 | 80 | 1016.8 |
| 20260502102313 | 67 | 52 | 6.0 | 9.0 | 0.00 | 0.14 | 0.06 | 80 | 1016.8 |
| 20260502102131 | 67 | 77 | 5.0 | 9.0 | 0.00 | 0.14 | 0.06 | 80 | 1016.8 |
| 20260502101931 | 67 | 78 | 6.0 | 9.0 | 0.00 | 0.14 | 0.06 | 80 | 1016.9 |
| 20260502101914 | 67 | 105 | 5.0 | 9.0 | 0.00 | 0.14 | 0.06 | 80 | 1016.9 |
| 20260502101744 | 67 | 52 | 4.0 | 9.0 | 0.01 | 0.14 | 0.06 | 81 | 1016.9 |
| 20260502101603 | 66 | 63 | 4.0 | 9.0 | 0.01 | 0.14 | 0.06 | 80 | 1016.9 |
| 20260502101206 | 66 | 95 | 4.0 | 9.0 | 0.01 | 0.14 | 0.06 | 80 | 1016.9 |
| 20260502101023 | 66 | 65 | 7.0 | 9.0 | 0.01 | 0.14 | 0.06 | 80 | 1016.9 |
| 20260502100605 | 66 | 86 | 3.0 | 8.0 | 0.01 | 0.14 | 0.06 | 81 | 1017.0 |
| 20260502100427 | 66 | 64 | 3.0 | 8.0 | 0.01 | 0.14 | 0.06 | 81 | 1017.0 |
| 20260502100254 | 66 | 59 | 5.0 | 8.0 | 0.01 | 0.14 | 0.06 | 81 | 1017.0 |
| 20260502100138 | 66 | 84 | 5.0 | 8.0 | 0.01 | 0.14 | 0.06 | 80 | 1017.0 |
| 20260502091527 | 64 | 46 | 0.0 | 2.0 | 0.01 | 0.15 | 0.06 | 81 | 1017.2 |
| 20260502091144 | 64 | 46 | 0.0 | 3.0 | 0.00 | 0.14 | 0.05 | 81 | 1017.1 |
| 20260502091031 | 64 | 46 | 0.0 | 3.0 | 0.00 | 0.14 | 0.05 | 81 | 1017.2 |
| 20260502090959 | 64 | 46 | 1.0 | 3.0 | 0.00 | 0.14 | 0.05 | 81 | 1017.2 |
| 20260502090555 | 63 | 46 | 1.0 | 3.0 | 0.00 | 0.14 | 0.05 | 81 | 1017.2 |
| 20260502090433 | 63 | 46 | 0.0 | 3.0 | 0.00 | 0.14 | 0.05 | 81 | 1017.1 |
| 20260502090329 | 63 | 66 | 0.0 | 2.0 | 0.00 | 0.14 | 0.05 | 81 | 1017.1 |
| 20260502090150 | 63 | 46 | 0.0 | 2.0 | 0.00 | 0.14 | 0.05 | 80 | 1017.1 |
| 20260502090118 | 63 | 46 | 0.0 | 2.0 | 0.00 | 0.14 | 0.05 | 80 | 1017.1 |
| 20260502080107 | 60 | 79 | 2.0 | 10.0 | 0.01 | 0.15 | 0.05 | 81 | 1016.8 |
| 20260502071515 | 59 | 63 | 2.0 | 8.0 | 0.01 | 0.15 | 0.05 | 82 | 1017.0 |
| 20260502071354 | 58 | 71 | 3.0 | 8.0 | 0.01 | 0.15 | 0.05 | 82 | 1017.0 |
| 20260502071331 | 58 | 69 | 4.0 | 8.0 | 0.01 | 0.15 | 0.05 | 82 | 1017.0 |
| 20260502071149 | 58 | 46 | 1.0 | 8.0 | 0.01 | 0.15 | 0.05 | 82 | 1017.0 |
| 20260502071008 | 58 | 81 | 2.0 | 8.0 | 0.01 | 0.15 | 0.05 | 82 | 1017.1 |
| 20260502070941 | 58 | 81 | 2.0 | 8.0 | 0.00 | 0.14 | 0.05 | 82 | 1017.0 |
| 20260502070817 | 58 | 69 | 5.0 | 8.0 | 0.00 | 0.14 | 0.04 | 82 | 1017.0 |
| 20260502070640 | 58 | 83 | 4.0 | 8.0 | 0.00 | 0.14 | 0.04 | 82 | 1017.1 |
| 20260502070513 | 58 | 71 | 3.0 | 8.0 | 0.00 | 0.14 | 0.04 | 82 | 1017.0 |
| 20260502070437 | 58 | 76 | 3.0 | 8.0 | 0.00 | 0.14 | 0.04 | 82 | 1017.1 |
| 20260502065909 | 58 | 97 | 4.0 | 8.0 | 0.00 | 0.14 | 0.04 | 82 | 1017.0 |
| 20260502065839 | 58 | 95 | 4.0 | 8.0 | 0.00 | 0.14 | 0.04 | 82 | 1017.0 |
| 20260502065716 | 58 | 65 | 5.0 | 8.0 | 0.00 | 0.14 | 0.04 | 82 | 1017.0 |
| 20260502065533 | 58 | 90 | 4.0 | 8.0 | 0.00 | 0.14 | 0.04 | 82 | 1017.0 |
| 20260502065416 | 58 | 57 | 4.0 | 5.0 | 0.00 | 0.14 | 0.04 | 82 | 1017.0 |
| 20260502065349 | 58 | 80 | 3.0 | 5.0 | 0.00 | 0.14 | 0.04 | 82 | 1017.0 |
| 20260502065205 | 58 | 91 | 1.0 | 4.0 | 0.00 | 0.14 | 0.04 | 82 | 1017.2 |
| 20260502065012 | 58 | 88 | 2.0 | 3.0 | 0.00 | 0.14 | 0.04 | 82 | 1017.2 |
| 20260502064939 | 58 | 106 | 2.0 | 3.0 | 0.00 | 0.14 | 0.04 | 81 | 1017.1 |
| 20260502064106 | 58 | 104 | 0.0 | 3.0 | 0.00 | 0.14 | 0.04 | 82 | 1017.2 |
| 20260502064038 | 58 | 135 | 0.0 | 2.0 | 0.00 | 0.14 | 0.04 | 82 | 1017.2 |
| 20260502063645 | 57 | 135 | 0.0 | 2.0 | 0.00 | 0.15 | 0.04 | 82 | 1017.3 |
| 20260502063628 | 57 | 135 | 0.0 | 2.0 | 0.00 | 0.15 | 0.04 | 82 | 1017.2 |
| 20260502063552 | 57 | 135 | 0.0 | 2.0 | 0.00 | 0.15 | 0.04 | 82 | 1017.2 |
| 20260502063435 | 57 | 126 | 0.0 | 2.0 | 0.00 | 0.15 | 0.04 | 82 | 1017.2 |
| 20260502063340 | 57 | 126 | 0.0 | 2.0 | 0.00 | 0.15 | 0.04 | 82 | 1017.1 |
| 20260502063312 | 57 | 118 | 0.0 | 2.0 | 0.00 | 0.15 | 0.04 | 82 | 1017.2 |
| 20260502063230 | 57 | 118 | 0.0 | 2.0 | 0.00 | 0.15 | 0.04 | 82 | 1017.2 |
| 20260502063128 | 57 | 118 | 0.0 | 5.0 | 0.00 | 0.15 | 0.04 | 82 | 1017.1 |
| 20260502063105 | 57 | 118 | 0.0 | 5.0 | 0.00 | 0.15 | 0.04 | 82 | 1017.2 |
| 20260502063013 | 57 | 118 | 1.0 | 5.0 | 0.00 | 0.15 | 0.04 | 82 | 1017.0 |
| 20260502062838 | 57 | 111 | 0.0 | 6.0 | 0.00 | 0.15 | 0.04 | 83 | 1017.1 |
| 20260502062736 | 57 | 127 | 1.0 | 8.0 | 0.00 | 0.15 | 0.04 | 83 | 1017.0 |
| 20260502062718 | 57 | 127 | 2.0 | 8.0 | 0.00 | 0.15 | 0.04 | 83 | 1017.1 |
| 20260502062542 | 56 | 81 | 3.0 | 9.0 | 0.00 | 0.15 | 0.04 | 83 | 1016.9 |
| 20260502062356 | 56 | 76 | 2.0 | 9.0 | 0.00 | 0.15 | 0.04 | 83 | 1016.9 |
| 20260502062331 | 56 | 55 | 2.0 | 9.0 | 0.00 | 0.15 | 0.04 | 83 | 1016.9 |
| 20260502062215 | 56 | 128 | 4.0 | 9.0 | 0.00 | 0.15 | 0.04 | 83 | 1016.9 |
| 20260502062039 | 56 | 121 | 4.0 | 9.0 | 0.00 | 0.15 | 0.04 | 82 | 1016.8 |
| 20260502061916 | 56 | 75 | 4.0 | 9.0 | 0.00 | 0.15 | 0.04 | 83 | 1016.8 |
| 20260502061848 | 56 | 111 | 4.0 | 9.0 | 0.00 | 0.15 | 0.04 | 83 | 1016.8 |
| 20260502061701 | 56 | 81 | 3.0 | 7.0 | 0.00 | 0.15 | 0.04 | 83 | 1016.8 |
| 20260502061521 | 56 | 88 | 4.0 | 7.0 | 0.00 | 0.15 | 0.04 | 83 | 1016.7 |
| 20260502061451 | 56 | 95 | 4.0 | 7.0 | 0.00 | 0.15 | 0.04 | 83 | 1016.8 |
| 20260502061159 | 56 | 105 | 4.0 | 6.0 | 0.00 | 0.15 | 0.04 | 83 | 1016.8 |
| 20260502061017 | 56 | 97 | 4.0 | 7.0 | 0.00 | 0.15 | 0.04 | 83 | 1016.8 |
| 20260502060953 | 56 | 91 | 3.0 | 7.0 | 0.00 | 0.15 | 0.04 | 83 | 1016.8 |
| 20260502060815 | 56 | 111 | 3.0 | 7.0 | 0.00 | 0.15 | 0.04 | 83 | 1016.8 |
| 20260502060045 | 56 | 117 | 4.0 | 7.0 | 0.00 | 0.15 | 0.04 | 83 | 1016.7 |
| 20260502055542 | 56 | 115 | 4.0 | 7.0 | 0.00 | 0.15 | 0.04 | 83 | 1016.7 |
| 20260502055514 | 56 | 76 | 4.0 | 7.0 | 0.00 | 0.15 | 0.04 | 83 | 1016.9 |
| 20260502055333 | 56 | 85 | 4.0 | 7.0 | 0.00 | 0.15 | 0.04 | 83 | 1016.8 |
| 20260502055151 | 56 | 90 | 4.0 | 8.0 | 0.01 | 0.15 | 0.04 | 83 | 1016.8 |
| 20260502055124 | 56 | 113 | 4.0 | 8.0 | 0.01 | 0.15 | 0.04 | 83 | 1016.8 |
| 20260502055014 | 56 | 95 | 2.0 | 8.0 | 0.01 | 0.15 | 0.04 | 83 | 1016.8 |
| 20260502054832 | 56 | 142 | 3.0 | 8.0 | 0.01 | 0.15 | 0.04 | 83 | 1016.8 |
| 20260502054421 | 56 | 73 | 5.0 | 9.0 | 0.01 | 0.15 | 0.04 | 82 | 1016.7 |
| 20260502054114 | 56 | 80 | 5.0 | 9.0 | 0.01 | 0.16 | 0.04 | 82 | 1016.7 |
| 20260502053955 | 56 | 57 | 5.0 | 9.0 | 0.01 | 0.16 | 0.04 | 82 | 1016.7 |
| 20260502053816 | 56 | 96 | 5.0 | 9.0 | 0.01 | 0.16 | 0.04 | 82 | 1016.7 |
| 20260502053649 | 56 | 86 | 5.0 | 9.0 | 0.01 | 0.16 | 0.04 | 82 | 1016.6 |
| 20260502053620 | 56 | 78 | 4.0 | 9.0 | 0.01 | 0.16 | 0.04 | 82 | 1016.6 |
| 20260502052922 | 56 | 72 | 4.0 | 8.0 | 0.01 | 0.16 | 0.04 | 82 | 1016.6 |
| 20260502052813 | 56 | 76 | 4.0 | 8.0 | 0.01 | 0.16 | 0.04 | 81 | 1016.6 |
| 20260502052632 | 56 | 101 | 3.0 | 8.0 | 0.01 | 0.16 | 0.04 | 81 | 1016.6 |
| 20260502052513 | 56 | 80 | 3.0 | 10.0 | 0.01 | 0.16 | 0.04 | 81 | 1016.7 |
| 20260502052446 | 56 | 94 | 4.0 | 10.0 | 0.01 | 0.16 | 0.04 | 81 | 1016.7 |
| 20260502052306 | 56 | 99 | 4.0 | 10.0 | 0.01 | 0.16 | 0.04 | 81 | 1016.8 |
| 20260502052130 | 56 | 85 | 5.0 | 10.0 | 0.01 | 0.16 | 0.04 | 81 | 1016.7 |
| 20260502052055 | 56 | 135 | 5.0 | 10.0 | 0.01 | 0.16 | 0.04 | 81 | 1016.8 |
| 20260502051941 | 56 | 113 | 4.0 | 10.0 | 0.01 | 0.16 | 0.04 | 81 | 1016.7 |
| 20260502051805 | 56 | 92 | 5.0 | 10.0 | 0.01 | 0.16 | 0.04 | 81 | 1016.8 |
| 20260502051643 | 56 | 69 | 4.0 | 10.0 | 0.01 | 0.16 | 0.04 | 81 | 1016.7 |
| 20260502051615 | 56 | 93 | 4.0 | 10.0 | 0.01 | 0.16 | 0.04 | 81 | 1016.7 |
| 20260502051201 | 56 | 126 | 5.0 | 10.0 | 0.01 | 0.16 | 0.04 | 81 | 1016.7 |
| 20260502051127 | 56 | 53 | 5.0 | 10.0 | 0.01 | 0.16 | 0.04 | 81 | 1016.7 |
| 20260502051015 | 56 | 111 | 6.0 | 10.0 | 0.01 | 0.16 | 0.04 | 81 | 1016.7 |
| 20260502050614 | 56 | 74 | 6.0 | 10.0 | 0.01 | 0.16 | 0.04 | 81 | 1016.7 |
| 20260502045857 | 56 | 109 | 6.0 | 10.0 | 0.01 | 0.16 | 0.04 | 81 | 1016.6 |
| 20260502045711 | 56 | 89 | 4.0 | 10.0 | 0.01 | 0.16 | 0.04 | 81 | 1016.6 |
| 20260502045548 | 56 | 88 | 4.0 | 7.0 | 0.01 | 0.16 | 0.04 | 81 | 1016.6 |
| 20260502045520 | 56 | 86 | 4.0 | 7.0 | 0.01 | 0.16 | 0.04 | 81 | 1016.7 |
| 20260502045339 | 56 | 85 | 4.0 | 7.0 | 0.01 | 0.16 | 0.04 | 82 | 1016.7 |
| 20260502045200 | 56 | 123 | 4.0 | 8.0 | 0.00 | 0.15 | 0.03 | 82 | 1016.7 |
| 20260502045130 | 56 | 90 | 4.0 | 8.0 | 0.00 | 0.15 | 0.03 | 82 | 1016.7 |
| 20260502044624 | 56 | 104 | 4.0 | 8.0 | 0.00 | 0.15 | 0.03 | 82 | 1016.8 |
| 20260502044459 | 55 | 87 | 4.0 | 8.0 | 0.00 | 0.15 | 0.03 | 82 | 1016.7 |
| 20260502044431 | 56 | 59 | 4.0 | 8.0 | 0.00 | 0.15 | 0.03 | 82 | 1016.7 |
| 20260502043859 | 55 | 111 | 5.0 | 8.0 | 0.00 | 0.15 | 0.03 | 82 | 1016.8 |
| 20260502043827 | 55 | 101 | 5.0 | 8.0 | 0.00 | 0.15 | 0.03 | 82 | 1016.7 |
| 20260502043712 | 55 | 89 | 5.0 | 10.0 | 0.00 | 0.15 | 0.03 | 82 | 1016.7 |
| 20260502043527 | 55 | 86 | 5.0 | 10.0 | 0.00 | 0.15 | 0.03 | 82 | 1016.9 |
| 20260502043409 | 55 | 84 | 6.0 | 10.0 | 0.00 | 0.15 | 0.03 | 82 | 1016.9 |
| 20260502043338 | 55 | 78 | 6.0 | 10.0 | 0.00 | 0.15 | 0.03 | 83 | 1016.9 |
| 20260502043151 | 55 | 83 | 5.0 | 10.0 | 0.00 | 0.15 | 0.03 | 83 | 1017.0 |
| 20260502043005 | 55 | 90 | 4.0 | 10.0 | 0.00 | 0.15 | 0.03 | 83 | 1016.9 |
| 20260502042931 | 55 | 71 | 4.0 | 10.0 | 0.00 | 0.15 | 0.03 | 83 | 1016.9 |
| 20260502042811 | 55 | 73 | 5.0 | 8.0 | 0.00 | 0.15 | 0.03 | 83 | 1017.0 |
| 20260502042628 | 55 | 82 | 4.0 | 8.0 | 0.00 | 0.15 | 0.03 | 83 | 1017.1 |
| 20260502042506 | 55 | 101 | 5.0 | 8.0 | 0.00 | 0.15 | 0.03 | 83 | 1017.0 |
| 20260502042438 | 55 | 87 | 5.0 | 7.0 | 0.00 | 0.15 | 0.03 | 83 | 1017.1 |
| 20260502041914 | 55 | 66 | 4.0 | 7.0 | 0.00 | 0.15 | 0.03 | 83 | 1017.1 |
| 20260502041845 | 55 | 78 | 4.0 | 7.0 | 0.00 | 0.15 | 0.03 | 83 | 1017.0 |
| 20260502041725 | 55 | 88 | 4.0 | 7.0 | 0.00 | 0.15 | 0.03 | 83 | 1017.0 |
| 20260502041549 | 55 | 58 | 4.0 | 7.0 | 0.00 | 0.15 | 0.03 | 82 | 1017.1 |
| 20260502041428 | 55 | 71 | 4.0 | 5.0 | 0.00 | 0.16 | 0.03 | 82 | 1017.1 |
| 20260502041402 | 55 | 91 | 3.0 | 5.0 | 0.00 | 0.16 | 0.03 | 82 | 1017.1 |
| 20260502041222 | 55 | 88 | 4.0 | 5.0 | 0.00 | 0.16 | 0.03 | 82 | 1017.1 |
| 20260502041041 | 55 | 69 | 3.0 | 5.0 | 0.00 | 0.16 | 0.03 | 82 | 1017.0 |
| 20260502041012 | 55 | 71 | 3.0 | 5.0 | 0.00 | 0.16 | 0.03 | 82 | 1017.2 |
| 20260502040851 | 55 | 80 | 3.0 | 4.0 | 0.00 | 0.16 | 0.03 | 82 | 1017.1 |
| 20260502040711 | 55 | 71 | 3.0 | 4.0 | 0.00 | 0.16 | 0.03 | 82 | 1017.1 |
| 20260502040552 | 55 | 71 | 3.0 | 4.0 | 0.00 | 0.16 | 0.03 | 82 | 1017.2 |
| 20260502040525 | 55 | 71 | 2.0 | 4.0 | 0.00 | 0.16 | 0.03 | 82 | 1017.2 |
| 20260502040344 | 55 | 69 | 3.0 | 4.0 | 0.00 | 0.16 | 0.03 | 82 | 1017.3 |
| 20260502040217 | 55 | 63 | 2.0 | 4.0 | 0.00 | 0.16 | 0.03 | 82 | 1017.4 |
| 20260502035831 | 55 | 84 | 2.0 | 4.0 | 0.00 | 0.16 | 0.03 | 82 | 1017.3 |
| 20260502035700 | 55 | 72 | 2.0 | 5.0 | 0.00 | 0.16 | 0.03 | 82 | 1017.3 |
| 20260502035543 | 55 | 87 | 2.0 | 5.0 | 0.00 | 0.16 | 0.03 | 81 | 1017.2 |
| 20260502035518 | 55 | 64 | 2.0 | 5.0 | 0.00 | 0.16 | 0.03 | 81 | 1017.3 |
| 20260502035344 | 55 | 76 | 3.0 | 5.0 | 0.00 | 0.16 | 0.03 | 81 | 1017.1 |
| 20260502035203 | 55 | 55 | 3.0 | 5.0 | 0.01 | 0.16 | 0.03 | 81 | 1017.2 |
| 20260502035134 | 55 | 78 | 3.0 | 5.0 | 0.01 | 0.16 | 0.03 | 81 | 1017.2 |
| 20260502035017 | 55 | 78 | 3.0 | 7.0 | 0.01 | 0.16 | 0.03 | 81 | 1017.1 |
| 20260502034615 | 55 | 80 | 3.0 | 7.0 | 0.01 | 0.16 | 0.03 | 81 | 1017.0 |
| 20260502034106 | 55 | 70 | 4.0 | 7.0 | 0.01 | 0.16 | 0.03 | 81 | 1017.1 |
| 20260502034038 | 55 | 80 | 4.0 | 7.0 | 0.01 | 0.16 | 0.03 | 81 | 1017.2 |
| 20260502033913 | 55 | 62 | 4.0 | 6.0 | 0.01 | 0.16 | 0.03 | 80 | 1017.1 |
| 20260502033734 | 55 | 67 | 3.0 | 6.0 | 0.01 | 0.16 | 0.03 | 81 | 1017.0 |
| 20260502033619 | 55 | 72 | 3.0 | 5.0 | 0.01 | 0.16 | 0.03 | 81 | 1017.1 |
| 20260502033553 | 55 | 69 | 3.0 | 5.0 | 0.01 | 0.16 | 0.03 | 80 | 1017.2 |
| 20260502033412 | 55 | 63 | 3.0 | 5.0 | 0.01 | 0.16 | 0.03 | 80 | 1017.1 |
| 20260502033239 | 55 | 69 | 3.0 | 5.0 | 0.01 | 0.16 | 0.03 | 80 | 1017.2 |
| 20260502033214 | 55 | 79 | 3.0 | 5.0 | 0.01 | 0.16 | 0.03 | 80 | 1017.1 |
| 20260502032407 | 55 | 40 | 3.0 | 4.0 | 0.01 | 0.16 | 0.03 | 80 | 1017.1 |
| 20260502032345 | 55 | 40 | 3.0 | 4.0 | 0.01 | 0.16 | 0.03 | 80 | 1017.1 |
| 20260502032207 | 55 | 76 | 3.0 | 4.0 | 0.01 | 0.16 | 0.03 | 80 | 1017.1 |
| 20260502031812 | 55 | 44 | 2.0 | 4.0 | 0.01 | 0.16 | 0.03 | 80 | 1017.1 |
| 20260502031711 | 55 | 44 | 2.0 | 4.0 | 0.01 | 0.16 | 0.03 | 80 | 1017.0 |
| 20260502031220 | 55 | 45 | 0.0 | 3.0 | 0.01 | 0.16 | 0.03 | 79 | 1017.1 |
| 20260502030845 | 56 | 46 | 0.0 | 2.0 | 0.01 | 0.16 | 0.03 | 79 | 1017.1 |
| 20260502030746 | 56 | 46 | 0.0 | 2.0 | 0.01 | 0.16 | 0.03 | 79 | 1017.1 |
| 20260502030724 | 56 | 46 | 0.0 | 2.0 | 0.01 | 0.16 | 0.03 | 79 | 1017.2 |
| 20260502030300 | 56 | 46 | 1.0 | 4.0 | 0.01 | 0.16 | 0.03 | 78 | 1017.2 |
| 20260502030200 | 56 | 54 | 0.0 | 4.0 | 0.01 | 0.16 | 0.03 | 78 | 1017.2 |
| 20260502030127 | 56 | 56 | 0.0 | 4.0 | 0.01 | 0.16 | 0.03 | 78 | 1017.1 |
| 20260502030014 | 56 | 51 | 0.0 | 4.0 | 0.01 | 0.16 | 0.03 | 78 | 1017.1 |
| 20260502025912 | 56 | 51 | 0.0 | 4.0 | 0.01 | 0.16 | 0.03 | 78 | 1017.2 |
| 20260502025900 | 56 | 51 | 1.0 | 4.0 | 0.01 | 0.16 | 0.03 | 78 | 1017.3 |
| 20260502025441 | 56 | 54 | 2.0 | 4.0 | 0.01 | 0.17 | 0.03 | 77 | 1017.2 |
| 20260502025327 | 56 | 49 | 3.0 | 4.0 | 0.01 | 0.17 | 0.03 | 77 | 1017.1 |
| 20260502024934 | 56 | 44 | 3.0 | 4.0 | 0.01 | 0.17 | 0.03 | 77 | 1017.1 |
| 20260502024809 | 56 | 59 | 2.0 | 4.0 | 0.00 | 0.16 | 0.02 | 77 | 1017.2 |
| 20260502024739 | 56 | 67 | 2.0 | 3.0 | 0.00 | 0.16 | 0.02 | 77 | 1017.2 |
| 20260502024617 | 56 | 63 | 2.0 | 4.0 | 0.00 | 0.16 | 0.02 | 77 | 1017.3 |
| 20260502024445 | 56 | 67 | 2.0 | 4.0 | 0.00 | 0.16 | 0.02 | 77 | 1017.2 |
| 20260502024045 | 56 | 54 | 1.0 | 4.0 | 0.00 | 0.16 | 0.02 | 77 | 1017.2 |
| 20260502023919 | 56 | 65 | 2.0 | 4.0 | 0.00 | 0.16 | 0.02 | 77 | 1017.2 |
| 20260502023728 | 56 | 85 | 2.0 | 4.0 | 0.00 | 0.16 | 0.02 | 77 | 1017.2 |
| 20260502023659 | 56 | 74 | 2.0 | 4.0 | 0.00 | 0.16 | 0.02 | 77 | 1017.3 |
| 20260502023538 | 56 | 59 | 2.0 | 4.0 | 0.00 | 0.16 | 0.02 | 76 | 1017.1 |
| 20260502023344 | 56 | 48 | 3.0 | 4.0 | 0.00 | 0.16 | 0.02 | 76 | 1017.1 |
| 20260502023226 | 57 | 53 | 3.0 | 4.0 | 0.00 | 0.16 | 0.02 | 76 | 1017.2 |
| 20260502023158 | 57 | 64 | 2.0 | 4.0 | 0.00 | 0.16 | 0.02 | 76 | 1017.1 |
| 20260502023023 | 57 | 94 | 0.0 | 0.0 | 0.00 | 0.16 | 0.02 | 76 | 1017.2 |
| 20260502022906 | 57 | 94 | 0.0 | 1.0 | 0.00 | 0.16 | 0.02 | 76 | 1017.2 |
| 20260502022844 | 57 | 94 | 0.0 | 2.0 | 0.00 | 0.16 | 0.02 | 76 | 1017.1 |
| 20260502022801 | 57 | 94 | 0.0 | 2.0 | 0.00 | 0.16 | 0.02 | 75 | 1017.2 |
| 20260502022712 | 57 | 94 | 0.0 | 2.0 | 0.00 | 0.16 | 0.02 | 75 | 1017.2 |
| 20260502022625 | 57 | 94 | 0.0 | 2.0 | 0.00 | 0.16 | 0.02 | 75 | 1017.3 |
| 20260502022611 | 57 | 94 | 0.0 | 2.0 | 0.00 | 0.16 | 0.02 | 75 | 1017.3 |
| 20260502021642 | 57 | 111 | 0.0 | 2.0 | 0.00 | 0.16 | 0.02 | 75 | 1017.4 |
| 20260502021541 | 57 | 111 | 0.0 | 4.0 | 0.00 | 0.16 | 0.02 | 75 | 1017.4 |
| 20260502021221 | 57 | 111 | 0.0 | 4.0 | 0.00 | 0.16 | 0.02 | 75 | 1017.4 |
| 20260502021104 | 57 | 130 | 0.0 | 4.0 | 0.01 | 0.16 | 0.02 | 75 | 1017.4 |
| 20260502020943 | 57 | 113 | 1.0 | 4.0 | 0.01 | 0.16 | 0.02 | 75 | 1017.4 |
| 20260502020914 | 57 | 113 | 1.0 | 4.0 | 0.01 | 0.16 | 0.02 | 75 | 1017.4 |
| 20260502020829 | 57 | 117 | 1.0 | 4.0 | 0.01 | 0.16 | 0.02 | 75 | 1017.4 |
| 20260502020706 | 57 | 109 | 2.0 | 4.0 | 0.01 | 0.16 | 0.02 | 75 | 1017.4 |
| 20260502020531 | 57 | 89 | 2.0 | 5.0 | 0.01 | 0.16 | 0.02 | 75 | 1017.4 |
| 20260502020520 | 57 | 82 | 2.0 | 5.0 | 0.01 | 0.16 | 0.02 | 75 | 1017.4 |
| 20260502020340 | 57 | 109 | 1.0 | 5.0 | 0.01 | 0.16 | 0.02 | 75 | 1017.4 |
| 20260502015906 | 57 | 78 | 2.0 | 5.0 | 0.01 | 0.16 | 0.02 | 74 | 1017.4 |
| 20260502015412 | 58 | 77 | 3.0 | 5.0 | 0.01 | 0.16 | 0.02 | 74 | 1017.5 |
| 20260502015236 | 58 | 76 | 3.0 | 5.0 | 0.01 | 0.16 | 0.02 | 74 | 1017.4 |
| 20260502015101 | 58 | 71 | 2.0 | 4.0 | 0.01 | 0.16 | 0.02 | 74 | 1017.4 |
| 20260502014921 | 58 | 60 | 3.0 | 4.0 | 0.01 | 0.16 | 0.02 | 74 | 1017.4 |
| 20260502014827 | 58 | 43 | 2.0 | 4.0 | 0.01 | 0.16 | 0.02 | 74 | 1017.5 |
| 20260502014728 | 58 | 84 | 2.0 | 5.0 | 0.01 | 0.16 | 0.02 | 74 | 1017.5 |
| 20260502014547 | 58 | 92 | 2.0 | 5.0 | 0.01 | 0.16 | 0.02 | 74 | 1017.5 |
| 20260502014409 | 58 | 78 | 2.0 | 5.0 | 0.01 | 0.17 | 0.02 | 74 | 1017.6 |
| 20260502014401 | 58 | 85 | 2.0 | 5.0 | 0.01 | 0.17 | 0.02 | 74 | 1017.5 |
| 20260502014223 | 58 | 65 | 2.0 | 5.0 | 0.01 | 0.17 | 0.02 | 74 | 1017.4 |
| 20260502014031 | 58 | 90 | 3.0 | 5.0 | 0.01 | 0.17 | 0.02 | 73 | 1017.4 |
| 20260502013950 | 58 | 86 | 3.0 | 5.0 | 0.01 | 0.17 | 0.02 | 73 | 1017.4 |
| 20260502013852 | 58 | 70 | 3.0 | 5.0 | 0.01 | 0.17 | 0.02 | 73 | 1017.4 |
| 20260502013712 | 58 | 67 | 2.0 | 6.0 | 0.01 | 0.17 | 0.02 | 73 | 1017.5 |
| 20260502012523 | 58 | 74 | 4.0 | 7.0 | 0.01 | 0.17 | 0.02 | 73 | 1017.6 |
| 20260502012111 | 58 | 87 | 4.0 | 7.0 | 0.01 | 0.17 | 0.02 | 73 | 1017.6 |
| 20260502011918 | 58 | 69 | 4.0 | 7.0 | 0.01 | 0.17 | 0.02 | 73 | 1017.6 |
| 20260502011754 | 58 | 71 | 4.0 | 7.0 | 0.01 | 0.17 | 0.02 | 73 | 1017.6 |
| 20260502011731 | 58 | 67 | 4.0 | 7.0 | 0.01 | 0.17 | 0.02 | 73 | 1017.6 |
| 20260502011548 | 58 | 69 | 4.0 | 7.0 | 0.01 | 0.17 | 0.02 | 73 | 1017.6 |
| 20260502011351 | 58 | 83 | 4.0 | 6.0 | 0.01 | 0.17 | 0.02 | 73 | 1017.6 |
| 20260502011312 | 58 | 79 | 3.0 | 6.0 | 0.01 | 0.17 | 0.02 | 73 | 1017.6 |
| 20260502011200 | 58 | 90 | 3.0 | 6.0 | 0.01 | 0.17 | 0.02 | 73 | 1017.6 |
| 20260502011017 | 58 | 80 | 2.0 | 7.0 | 0.01 | 0.17 | 0.02 | 73 | 1017.6 |
| 20260502010851 | 58 | 88 | 3.0 | 7.0 | 0.01 | 0.17 | 0.02 | 73 | 1017.7 |
| 20260502010829 | 59 | 89 | 2.0 | 7.0 | 0.01 | 0.17 | 0.02 | 73 | 1017.7 |
| 20260502010639 | 59 | 94 | 3.0 | 8.0 | 0.00 | 0.16 | 0.02 | 73 | 1017.8 |
| 20260502010500 | 59 | 84 | 3.0 | 8.0 | 0.00 | 0.16 | 0.02 | 73 | 1017.8 |
| 20260502010413 | 59 | 155 | 3.0 | 8.0 | 0.00 | 0.16 | 0.02 | 73 | 1017.8 |
| 20260502010310 | 59 | 64 | 3.0 | 8.0 | 0.00 | 0.16 | 0.02 | 73 | 1017.7 |
| 20260502010116 | 59 | 76 | 4.0 | 8.0 | 0.00 | 0.16 | 0.02 | 73 | 1017.7 |
| 20260502005941 | 59 | 82 | 4.0 | 8.0 | 0.00 | 0.16 | 0.02 | 73 | 1017.7 |
| 20260502005931 | 59 | 80 | 4.0 | 8.0 | 0.00 | 0.16 | 0.02 | 73 | 1017.7 |
| 20260502005738 | 59 | 74 | 4.0 | 7.0 | 0.00 | 0.16 | 0.02 | 73 | 1017.8 |
| 20260502005557 | 59 | 70 | 4.0 | 7.0 | 0.00 | 0.16 | 0.02 | 73 | 1017.6 |
| 20260502005508 | 59 | 74 | 4.0 | 7.0 | 0.00 | 0.16 | 0.02 | 73 | 1017.7 |
| 20260502005402 | 59 | 96 | 4.0 | 7.0 | 0.00 | 0.16 | 0.02 | 73 | 1017.8 |
| 20260502005211 | 59 | 68 | 4.0 | 7.0 | 0.00 | 0.16 | 0.02 | 72 | 1017.9 |
| 20260502005031 | 59 | 90 | 4.0 | 7.0 | 0.00 | 0.16 | 0.02 | 72 | 1017.9 |
| 20260502005021 | 59 | 88 | 4.0 | 7.0 | 0.00 | 0.16 | 0.02 | 72 | 1017.9 |
| 20260502004825 | 59 | 61 | 4.0 | 8.0 | 0.00 | 0.16 | 0.02 | 72 | 1017.8 |
| 20260502004639 | 59 | 88 | 3.0 | 8.0 | 0.01 | 0.16 | 0.02 | 72 | 1017.9 |
| 20260502004552 | 59 | 86 | 4.0 | 8.0 | 0.01 | 0.16 | 0.02 | 72 | 1017.8 |
| 20260502004449 | 59 | 89 | 4.0 | 8.0 | 0.01 | 0.16 | 0.02 | 72 | 1017.9 |
| 20260502004256 | 59 | 83 | 4.0 | 8.0 | 0.01 | 0.16 | 0.02 | 72 | 1017.8 |
| 20260502004118 | 59 | 52 | 5.0 | 8.0 | 0.01 | 0.16 | 0.02 | 72 | 1017.8 |
| 20260502004102 | 59 | 81 | 5.0 | 8.0 | 0.01 | 0.16 | 0.02 | 72 | 1017.8 |
| 20260502003913 | 59 | 83 | 4.0 | 8.0 | 0.01 | 0.16 | 0.02 | 72 | 1017.9 |
| 20260502003740 | 59 | 89 | 4.0 | 8.0 | 0.01 | 0.16 | 0.02 | 72 | 1017.9 |
| 20260502003653 | 59 | 88 | 5.0 | 8.0 | 0.01 | 0.16 | 0.02 | 72 | 1017.9 |
| 20260502003549 | 59 | 106 | 4.0 | 8.0 | 0.01 | 0.16 | 0.02 | 72 | 1017.9 |
| 20260502003403 | 60 | 69 | 5.0 | 7.0 | 0.01 | 0.17 | 0.02 | 72 | 1017.9 |
| 20260502003239 | 60 | 70 | 4.0 | 8.0 | 0.01 | 0.17 | 0.02 | 72 | 1018.0 |
| 20260502003220 | 60 | 87 | 3.0 | 8.0 | 0.01 | 0.17 | 0.02 | 72 | 1018.0 |
| 20260502003040 | 60 | 83 | 5.0 | 8.0 | 0.01 | 0.17 | 0.02 | 72 | 1018.1 |
| 20260502002855 | 60 | 74 | 4.0 | 8.0 | 0.01 | 0.17 | 0.02 | 72 | 1018.1 |
| 20260502002813 | 60 | 67 | 4.0 | 8.0 | 0.01 | 0.17 | 0.02 | 72 | 1018.0 |
| 20260502002300 | 60 | 72 | 5.0 | 8.0 | 0.01 | 0.17 | 0.02 | 71 | 1018.1 |
| 20260502002143 | 60 | 86 | 3.0 | 8.0 | 0.01 | 0.17 | 0.02 | 72 | 1018.1 |
| 20260502002113 | 60 | 75 | 3.0 | 8.0 | 0.01 | 0.17 | 0.02 | 72 | 1018.1 |
| 20260502001928 | 60 | 73 | 3.0 | 8.0 | 0.01 | 0.17 | 0.02 | 71 | 1018.2 |
| 20260502001749 | 60 | 101 | 6.0 | 8.0 | 0.01 | 0.17 | 0.02 | 71 | 1018.2 |
| 20260502001720 | 60 | 74 | 5.0 | 8.0 | 0.01 | 0.17 | 0.02 | 71 | 1018.3 |
| 20260502001559 | 60 | 87 | 4.0 | 8.0 | 0.01 | 0.17 | 0.02 | 71 | 1018.3 |
| 20260502001420 | 60 | 76 | 4.0 | 7.0 | 0.01 | 0.17 | 0.02 | 71 | 1018.4 |
| 20260502001307 | 60 | 111 | 4.0 | 8.0 | 0.01 | 0.17 | 0.02 | 72 | 1018.4 |
| 20260502001234 | 60 | 85 | 4.0 | 8.0 | 0.01 | 0.17 | 0.02 | 71 | 1018.4 |
| 20260502001058 | 60 | 76 | 3.0 | 8.0 | 0.01 | 0.17 | 0.02 | 71 | 1018.4 |
| 20260502000652 | 60 | 96 | 5.0 | 8.0 | 0.01 | 0.17 | 0.02 | 72 | 1018.5 |
| 20260502000527 | 60 | 80 | 4.0 | 8.0 | 0.01 | 0.17 | 0.02 | 72 | 1018.4 |
| 20260502000342 | 60 | 82 | 5.0 | 8.0 | 0.01 | 0.17 | 0.02 | 71 | 1018.5 |
| 20260502000221 | 60 | 84 | 4.0 | 8.0 | 0.01 | 0.17 | 0.02 | 71 | 1018.5 |
| 20260502000144 | 60 | 69 | 4.0 | 8.0 | 0.01 | 0.17 | 0.02 | 71 | 1018.4 |
| 20260502000004 | 60 | 53 | 5.0 | 8.0 | 0.01 | 0.17 | 0.02 | 71 | 1018.4 |
| 20260501235817 | 60 | 89 | 4.0 | 8.0 | 0.01 | 0.17 | 0.02 | 71 | 1018.4 |
| 20260501235755 | 60 | 79 | 4.0 | 7.0 | 0.01 | 0.17 | 0.02 | 71 | 1018.6 |
| 20260501235625 | 60 | 66 | 3.0 | 10.0 | 0.01 | 0.17 | 0.02 | 71 | 1018.5 |
| 20260501235440 | 60 | 104 | 4.0 | 10.0 | 0.01 | 0.17 | 0.02 | 71 | 1018.6 |
| 20260501235330 | 60 | 86 | 4.0 | 10.0 | 0.01 | 0.17 | 0.02 | 71 | 1018.5 |
| 20260501235249 | 61 | 74 | 4.0 | 10.0 | 0.01 | 0.17 | 0.02 | 71 | 1018.5 |
| 20260501235106 | 61 | 100 | 4.0 | 10.0 | 0.01 | 0.17 | 0.02 | 71 | 1018.5 |
| 20260501234925 | 61 | 92 | 5.0 | 10.0 | 0.00 | 0.16 | 0.02 | 71 | 1018.5 |
| 20260501234908 | 61 | 71 | 4.0 | 10.0 | 0.00 | 0.16 | 0.02 | 71 | 1018.5 |
| 20260501234729 | 61 | 77 | 4.0 | 6.0 | 0.00 | 0.16 | 0.01 | 71 | 1018.5 |
| 20260501234545 | 61 | 67 | 4.0 | 7.0 | 0.00 | 0.16 | 0.01 | 71 | 1018.6 |
| 20260501234448 | 61 | 91 | 5.0 | 7.0 | 0.00 | 0.16 | 0.01 | 71 | 1018.6 |
| 20260501234400 | 61 | 77 | 4.0 | 7.0 | 0.00 | 0.16 | 0.01 | 71 | 1018.6 |
| 20260501234219 | 61 | 83 | 4.0 | 7.0 | 0.00 | 0.16 | 0.01 | 71 | 1018.5 |
| 20260501233817 | 61 | 96 | 4.0 | 7.0 | 0.00 | 0.16 | 0.01 | 71 | 1018.6 |
| 20260501233644 | 61 | 72 | 3.0 | 7.0 | 0.01 | 0.16 | 0.01 | 71 | 1018.6 |
| 20260501233503 | 61 | 80 | 4.0 | 6.0 | 0.01 | 0.17 | 0.01 | 70 | 1018.6 |
| 20260501233410 | 61 | 66 | 2.0 | 7.0 | 0.01 | 0.17 | 0.01 | 70 | 1018.6 |
| 20260501233316 | 61 | 75 | 2.0 | 7.0 | 0.01 | 0.17 | 0.01 | 70 | 1018.6 |
| 20260501233136 | 62 | 63 | 3.0 | 7.0 | 0.01 | 0.17 | 0.01 | 70 | 1018.7 |
| 20260501232955 | 62 | 76 | 4.0 | 7.0 | 0.01 | 0.17 | 0.01 | 70 | 1018.7 |
| 20260501232947 | 62 | 42 | 3.0 | 7.0 | 0.01 | 0.17 | 0.01 | 70 | 1018.7 |
| 20260501232807 | 62 | 72 | 4.0 | 7.0 | 0.01 | 0.17 | 0.01 | 70 | 1018.7 |
| 20260501232619 | 62 | 91 | 4.0 | 7.0 | 0.01 | 0.17 | 0.01 | 70 | 1018.6 |
| 20260501232518 | 62 | 69 | 3.0 | 7.0 | 0.01 | 0.17 | 0.01 | 70 | 1018.7 |
| 20260501232427 | 62 | 62 | 3.0 | 7.0 | 0.01 | 0.17 | 0.01 | 69 | 1018.7 |
| 20260501231838 | 62 | 65 | 3.0 | 7.0 | 0.01 | 0.17 | 0.01 | 69 | 1018.7 |
| 20260501231701 | 62 | 92 | 3.0 | 9.0 | 0.01 | 0.17 | 0.01 | 69 | 1018.7 |
| 20260501231504 | 62 | 78 | 3.0 | 9.0 | 0.01 | 0.17 | 0.01 | 69 | 1018.6 |
| 20260501231405 | 62 | 75 | 3.0 | 9.0 | 0.01 | 0.17 | 0.01 | 69 | 1018.7 |
| 20260501231315 | 62 | 109 | 3.0 | 9.0 | 0.01 | 0.17 | 0.01 | 69 | 1018.6 |
| 20260501231140 | 62 | 84 | 3.0 | 9.0 | 0.01 | 0.17 | 0.01 | 69 | 1018.6 |
| 20260501231001 | 62 | 78 | 5.0 | 9.0 | 0.01 | 0.17 | 0.01 | 69 | 1018.6 |
| 20260501230944 | 62 | 69 | 5.0 | 9.0 | 0.01 | 0.17 | 0.01 | 69 | 1018.6 |
| 20260501230811 | 62 | 53 | 3.0 | 8.0 | 0.01 | 0.17 | 0.01 | 69 | 1018.6 |
| 20260501230425 | 62 | 84 | 5.0 | 9.0 | 0.01 | 0.17 | 0.01 | 69 | 1018.5 |
| 20260501230242 | 63 | 81 | 4.0 | 9.0 | 0.01 | 0.17 | 0.01 | 69 | 1018.5 |
| 20260501230001 | 63 | 82 | 4.0 | 9.0 | 0.01 | 0.17 | 0.01 | 69 | 1018.5 |
| 20260501225339 | 63 | 90 | 5.0 | 9.0 | 0.01 | 0.17 | 0.01 | 69 | 1018.5 |
| 20260501225158 | 63 | 84 | 6.0 | 9.0 | 0.01 | 0.17 | 0.01 | 69 | 1018.6 |
| 20260501225014 | 63 | 71 | 4.0 | 9.0 | 0.01 | 0.17 | 0.01 | 68 | 1018.6 |
| 20260501224946 | 63 | 92 | 4.0 | 9.0 | 0.01 | 0.17 | 0.01 | 68 | 1018.6 |
| 20260501224822 | 63 | 82 | 4.0 | 9.0 | 0.01 | 0.17 | 0.01 | 69 | 1018.6 |
| 20260501224415 | 63 | 83 | 5.0 | 11.0 | 0.01 | 0.17 | 0.01 | 69 | 1018.7 |
| 20260501224346 | 63 | 76 | 4.0 | 11.0 | 0.01 | 0.17 | 0.01 | 68 | 1018.7 |
| 20260501224203 | 63 | 102 | 4.0 | 11.0 | 0.01 | 0.17 | 0.01 | 69 | 1018.7 |
| 20260501224022 | 63 | 135 | 4.0 | 11.0 | 0.01 | 0.17 | 0.01 | 69 | 1018.6 |
| 20260501223958 | 63 | 105 | 4.0 | 11.0 | 0.01 | 0.17 | 0.01 | 69 | 1018.6 |
| 20260501223541 | 64 | 90 | 5.0 | 11.0 | 0.01 | 0.17 | 0.00 | 68 | 1018.8 |
| 20260501223422 | 64 | 109 | 4.0 | 11.0 | 0.01 | 0.17 | 0.00 | 69 | 1018.7 |
| 20260501223351 | 64 | 68 | 4.0 | 11.0 | 0.01 | 0.17 | 0.00 | 69 | 1018.7 |
| 20260501223216 | 64 | 78 | 5.0 | 11.0 | 0.01 | 0.17 | 0.17 | 69 | 1018.7 |
| 20260501222733 | 64 | 103 | 5.0 | 11.0 | 0.01 | 0.17 | 0.17 | 69 | 1018.8 |
| 20260501222553 | 64 | 104 | 5.0 | 11.0 | 0.01 | 0.17 | 0.17 | 68 | 1018.9 |
| 20260501222429 | 64 | 109 | 5.0 | 8.0 | 0.01 | 0.17 | 0.17 | 69 | 1018.9 |
| 20260501222400 | 64 | 94 | 5.0 | 8.0 | 0.01 | 0.17 | 0.17 | 69 | 1018.9 |
| 20260501221849 | 64 | 92 | 4.0 | 9.0 | 0.01 | 0.17 | 0.17 | 69 | 1018.9 |
| 20260501221815 | 64 | 107 | 4.0 | 9.0 | 0.01 | 0.17 | 0.17 | 69 | 1019.0 |
| 20260501221659 | 64 | 76 | 4.0 | 9.0 | 0.01 | 0.17 | 0.17 | 69 | 1019.0 |
| 20260501221522 | 64 | 121 | 3.0 | 9.0 | 0.01 | 0.17 | 0.17 | 69 | 1018.9 |
| 20260501221352 | 64 | 101 | 3.0 | 9.0 | 0.01 | 0.17 | 0.17 | 69 | 1019.0 |
| 20260501221325 | 64 | 81 | 4.0 | 9.0 | 0.01 | 0.17 | 0.17 | 69 | 1018.9 |
| 20260501221141 | 64 | 85 | 4.0 | 9.0 | 0.01 | 0.17 | 0.17 | 69 | 1018.8 |
| 20260501221002 | 64 | 84 | 4.0 | 9.0 | 0.01 | 0.17 | 0.17 | 68 | 1018.9 |
| 20260501220933 | 64 | 95 | 4.0 | 9.0 | 0.01 | 0.17 | 0.17 | 68 | 1018.9 |
| 20260501220810 | 65 | 81 | 3.0 | 9.0 | 0.01 | 0.17 | 0.17 | 68 | 1018.9 |
| 20260501220637 | 65 | 77 | 3.0 | 9.0 | 0.01 | 0.17 | 0.17 | 68 | 1018.8 |
| 20260501220220 | 65 | 88 | 4.0 | 9.0 | 0.01 | 0.17 | 0.17 | 67 | 1018.9 |
| 20260501215739 | 65 | 88 | 5.0 | 8.0 | 0.01 | 0.17 | 0.17 | 67 | 1018.9 |
| 20260501215600 | 65 | 107 | 3.0 | 8.0 | 0.01 | 0.17 | 0.17 | 67 | 1018.9 |
| 20260501215443 | 65 | 76 | 4.0 | 8.0 | 0.01 | 0.17 | 0.17 | 67 | 1019.0 |
| 20260501215415 | 65 | 106 | 4.0 | 8.0 | 0.01 | 0.17 | 0.17 | 67 | 1018.9 |
| 20260501215229 | 65 | 87 | 3.0 | 8.0 | 0.01 | 0.17 | 0.17 | 67 | 1018.9 |
| 20260501214807 | 65 | 120 | 4.0 | 7.0 | 0.01 | 0.17 | 0.17 | 67 | 1019.0 |
| 20260501214626 | 65 | 124 | 3.0 | 9.0 | 0.01 | 0.17 | 0.17 | 66 | 1018.9 |
| 20260501214124 | 66 | 95 | 4.0 | 10.0 | 0.01 | 0.17 | 0.17 | 66 | 1018.9 |
| 20260501213944 | 66 | 105 | 4.0 | 10.0 | 0.02 | 0.17 | 0.17 | 66 | 1018.9 |
| 20260501213915 | 66 | 98 | 4.0 | 10.0 | 0.02 | 0.17 | 0.17 | 66 | 1019.0 |
| 20260501213759 | 66 | 105 | 6.0 | 10.0 | 0.02 | 0.17 | 0.17 | 66 | 1019.0 |
| 20260501213615 | 66 | 123 | 5.0 | 10.0 | 0.01 | 0.17 | 0.16 | 66 | 1018.9 |
| 20260501213500 | 66 | 82 | 4.0 | 10.0 | 0.01 | 0.17 | 0.16 | 66 | 1018.9 |
| 20260501213427 | 66 | 113 | 4.0 | 10.0 | 0.01 | 0.17 | 0.16 | 66 | 1018.9 |
| 20260501213027 | 66 | 108 | 5.0 | 10.0 | 0.01 | 0.17 | 0.16 | 67 | 1019.0 |
| 20260501213001 | 66 | 114 | 5.0 | 10.0 | 0.01 | 0.17 | 0.16 | 67 | 1019.0 |
| 20260501212606 | 66 | 118 | 6.0 | 11.0 | 0.01 | 0.17 | 0.16 | 67 | 1018.9 |
| 20260501212121 | 66 | 103 | 5.0 | 11.0 | 0.01 | 0.17 | 0.16 | 67 | 1019.0 |
| 20260501211940 | 66 | 109 | 6.0 | 11.0 | 0.01 | 0.17 | 0.16 | 68 | 1019.0 |
| 20260501211928 | 66 | 116 | 6.0 | 11.0 | 0.01 | 0.17 | 0.16 | 68 | 1019.0 |
| 20260501211747 | 66 | 108 | 5.0 | 11.0 | 0.01 | 0.17 | 0.16 | 68 | 1018.9 |
| 20260501211311 | 66 | 117 | 4.0 | 11.0 | 0.01 | 0.17 | 0.16 | 69 | 1018.9 |
| 20260501211131 | 66 | 125 | 4.0 | 11.0 | 0.01 | 0.17 | 0.16 | 69 | 1018.9 |
| 20260501210943 | 66 | 107 | 4.0 | 11.0 | 0.01 | 0.17 | 0.16 | 70 | 1018.9 |
| 20260501210805 | 67 | 124 | 5.0 | 11.0 | 0.01 | 0.17 | 0.16 | 70 | 1018.7 |
| 20260501210455 | 67 | 81 | 5.0 | 9.0 | 0.01 | 0.17 | 0.16 | 71 | 1018.8 |
| 20260501210035 | 67 | 60 | 4.0 | 9.0 | 0.01 | 0.17 | 0.16 | 71 | 1018.9 |
| 20260501205839 | 67 | 126 | 6.0 | 11.0 | 0.01 | 0.17 | 0.16 | 71 | 1018.7 |
| 20260501205659 | 67 | 67 | 4.0 | 11.0 | 0.01 | 0.17 | 0.16 | 71 | 1018.7 |
| 20260501205515 | 67 | 125 | 4.0 | 11.0 | 0.01 | 0.17 | 0.16 | 71 | 1018.6 |
| 20260501205417 | 67 | 105 | 4.0 | 11.0 | 0.01 | 0.17 | 0.16 | 71 | 1018.7 |
| 20260501205324 | 67 | 119 | 4.0 | 11.0 | 0.01 | 0.17 | 0.16 | 71 | 1018.7 |
| 20260501205143 | 67 | 109 | 7.0 | 11.0 | 0.01 | 0.17 | 0.16 | 71 | 1018.6 |
| 20260501204720 | 67 | 108 | 4.0 | 11.0 | 0.01 | 0.17 | 0.16 | 70 | 1018.6 |
| 20260501204535 | 67 | 120 | 4.0 | 11.0 | 0.01 | 0.17 | 0.16 | 70 | 1018.5 |
| 20260501204448 | 67 | 86 | 4.0 | 11.0 | 0.01 | 0.17 | 0.16 | 70 | 1018.6 |
| 20260501204000 | 68 | 108 | 6.0 | 11.0 | 0.01 | 0.17 | 0.16 | 70 | 1018.6 |
| 20260501203821 | 68 | 115 | 7.0 | 12.0 | 0.00 | 0.17 | 0.15 | 69 | 1018.6 |
| 20260501203803 | 68 | 85 | 7.0 | 12.0 | 0.00 | 0.17 | 0.15 | 69 | 1018.6 |
| 20260501203619 | 68 | 111 | 5.0 | 12.0 | 0.01 | 0.17 | 0.15 | 69 | 1018.7 |
| 20260501203438 | 68 | 90 | 6.0 | 12.0 | 0.01 | 0.17 | 0.15 | 69 | 1018.7 |
| 20260501203046 | 68 | 79 | 7.0 | 12.0 | 0.01 | 0.17 | 0.15 | 69 | 1018.6 |
| 20260501202905 | 68 | 128 | 6.0 | 12.0 | 0.01 | 0.17 | 0.15 | 70 | 1018.7 |
| 20260501202728 | 68 | 100 | 5.0 | 11.0 | 0.01 | 0.17 | 0.15 | 70 | 1018.7 |
| 20260501202713 | 68 | 116 | 5.0 | 11.0 | 0.01 | 0.17 | 0.15 | 70 | 1018.7 |
| 20260501202537 | 69 | 89 | 7.0 | 11.0 | 0.01 | 0.17 | 0.15 | 70 | 1018.7 |
| 20260501202400 | 69 | 85 | 6.0 | 12.0 | 0.01 | 0.17 | 0.15 | 71 | 1018.6 |
| 20260501202310 | 69 | 117 | 6.0 | 12.0 | 0.01 | 0.17 | 0.15 | 71 | 1018.5 |
| 20260501201816 | 69 | 101 | 4.0 | 12.0 | 0.01 | 0.17 | 0.15 | 72 | 1018.5 |
| 20260501201641 | 69 | 65 | 6.0 | 12.0 | 0.01 | 0.17 | 0.15 | 72 | 1018.5 |
| 20260501201626 | 69 | 107 | 7.0 | 12.0 | 0.01 | 0.17 | 0.15 | 72 | 1018.5 |
| 20260501201441 | 69 | 97 | 4.0 | 12.0 | 0.01 | 0.17 | 0.15 | 72 | 1018.3 |
| 20260501201304 | 69 | 80 | 3.0 | 11.0 | 0.01 | 0.17 | 0.15 | 73 | 1018.4 |
| 20260501201213 | 69 | 96 | 4.0 | 11.0 | 0.01 | 0.17 | 0.15 | 73 | 1018.3 |
| 20260501201114 | 69 | 81 | 5.0 | 11.0 | 0.01 | 0.17 | 0.15 | 73 | 1018.3 |
| 20260501200550 | 69 | 80 | 5.0 | 11.0 | 0.01 | 0.17 | 0.15 | 73 | 1018.2 |
| 20260501200536 | 69 | 90 | 6.0 | 11.0 | 0.01 | 0.17 | 0.15 | 73 | 1018.2 |
| 20260501200403 | 69 | 77 | 5.0 | 11.0 | 0.01 | 0.17 | 0.15 | 73 | 1018.3 |
| 20260501200228 | 69 | 90 | 6.0 | 11.0 | 0.01 | 0.17 | 0.15 | 73 | 1018.3 |
| 20260501200135 | 69 | 140 | 6.0 | 11.0 | 0.01 | 0.17 | 0.15 | 74 | 1018.3 |
| 20260501200038 | 69 | 89 | 5.0 | 11.0 | 0.01 | 0.17 | 0.15 | 74 | 1018.4 |
| 20260501195857 | 69 | 102 | 5.0 | 11.0 | 0.01 | 0.17 | 0.15 | 74 | 1018.3 |
| 20260501195717 | 69 | 51 | 6.0 | 11.0 | 0.01 | 0.17 | 0.15 | 75 | 1018.2 |
| 20260501195707 | 69 | 94 | 7.0 | 11.0 | 0.01 | 0.17 | 0.15 | 75 | 1018.2 |
| 20260501195517 | 69 | 92 | 6.0 | 11.0 | 0.01 | 0.17 | 0.15 | 76 | 1018.3 |
| 20260501195339 | 69 | 61 | 7.0 | 11.0 | 0.01 | 0.17 | 0.15 | 76 | 1018.2 |
| 20260501195240 | 69 | 113 | 6.0 | 11.0 | 0.01 | 0.17 | 0.15 | 77 | 1018.2 |
| 20260501195145 | 69 | 99 | 6.0 | 11.0 | 0.01 | 0.17 | 0.15 | 77 | 1018.3 |
| 20260501195002 | 70 | 84 | 5.0 | 10.0 | 0.01 | 0.17 | 0.15 | 78 | 1018.3 |
| 20260501194813 | 70 | 69 | 4.0 | 10.0 | 0.01 | 0.17 | 0.15 | 79 | 1018.3 |
| 20260501194628 | 70 | 65 | 4.0 | 10.0 | 0.01 | 0.17 | 0.15 | 79 | 1018.3 |
| 20260501194447 | 70 | 80 | 5.0 | 8.0 | 0.01 | 0.17 | 0.15 | 79 | 1018.4 |
| 20260501194354 | 70 | 79 | 4.0 | 8.0 | 0.01 | 0.17 | 0.15 | 79 | 1018.3 |
| 20260501194256 | 70 | 69 | 3.0 | 8.0 | 0.01 | 0.17 | 0.15 | 79 | 1018.3 |
| 20260501194123 | 70 | 110 | 4.0 | 8.0 | 0.01 | 0.17 | 0.15 | 80 | 1018.3 |
| 20260501193804 | 70 | 86 | 3.0 | 6.0 | 0.01 | 0.17 | 0.15 | 80 | 1018.4 |
| 20260501193620 | 70 | 77 | 3.0 | 6.0 | 0.00 | 0.17 | 0.14 | 80 | 1018.3 |
| 20260501193435 | 70 | 74 | 3.0 | 5.0 | 0.00 | 0.17 | 0.14 | 80 | 1018.3 |
| 20260501193043 | 70 | 73 | 1.0 | 4.0 | 0.01 | 0.17 | 0.14 | 80 | 1018.2 |
| 20260501192928 | 71 | 100 | 1.0 | 3.0 | 0.01 | 0.17 | 0.14 | 80 | 1018.3 |
| 20260501192754 | 71 | 82 | 1.0 | 4.0 | 0.01 | 0.17 | 0.14 | 80 | 1018.3 |
| 20260501192629 | 71 | 73 | 0.0 | 4.0 | 0.01 | 0.17 | 0.14 | 80 | 1018.3 |
| 20260501192504 | 71 | 76 | 0.0 | 4.0 | 0.01 | 0.17 | 0.14 | 80 | 1018.3 |
| 20260501192417 | 71 | 84 | 2.0 | 4.0 | 0.01 | 0.17 | 0.14 | 79 | 1018.2 |
| 20260501192349 | 71 | 84 | 2.0 | 4.0 | 0.01 | 0.17 | 0.14 | 79 | 1018.2 |
| 20260501192202 | 71 | 65 | 2.0 | 4.0 | 0.01 | 0.17 | 0.14 | 79 | 1018.2 |
| 20260501192020 | 71 | 73 | 1.0 | 4.0 | 0.01 | 0.17 | 0.14 | 79 | 1018.2 |
| 20260501191841 | 71 | 44 | 1.0 | 4.0 | 0.01 | 0.17 | 0.14 | 79 | 1018.3 |
| 20260501191729 | 71 | 61 | 1.0 | 4.0 | 0.01 | 0.17 | 0.14 | 78 | 1018.2 |
| 20260501191626 | 72 | 57 | 0.0 | 4.0 | 0.01 | 0.17 | 0.14 | 78 | 1018.3 |
| 20260501191540 | 72 | 49 | 1.0 | 3.0 | 0.01 | 0.17 | 0.14 | 78 | 1018.3 |
| 20260501191418 | 72 | 60 | 1.0 | 3.0 | 0.01 | 0.17 | 0.14 | 78 | 1018.3 |
| 20260501191251 | 72 | 88 | 0.0 | 3.0 | 0.01 | 0.17 | 0.14 | 78 | 1018.3 |
| 20260501190923 | 72 | 121 | 0.0 | 4.0 | 0.01 | 0.17 | 0.14 | 78 | 1018.4 |
| 20260501190856 | 72 | 107 | 0.0 | 4.0 | 0.01 | 0.17 | 0.14 | 78 | 1018.3 |
| 20260501190811 | 72 | 107 | 0.0 | 4.0 | 0.01 | 0.17 | 0.14 | 78 | 1018.3 |
| 20260501190204 | 72 | 112 | 1.0 | 5.0 | 0.01 | 0.17 | 0.14 | 77 | 1018.2 |
| 20260501190032 | 72 | 76 | 1.0 | 5.0 | 0.01 | 0.17 | 0.14 | 77 | 1018.1 |
| 20260501185945 | 72 | 72 | 1.0 | 5.0 | 0.01 | 0.17 | 0.14 | 77 | 1018.2 |
| 20260501185852 | 72 | 80 | 0.0 | 7.0 | 0.01 | 0.17 | 0.14 | 77 | 1018.2 |
| 20260501185742 | 72 | 56 | 2.0 | 7.0 | 0.01 | 0.17 | 0.14 | 77 | 1018.2 |
| 20260501185348 | 72 | 79 | 2.0 | 7.0 | 0.01 | 0.17 | 0.14 | 77 | 1018.1 |
| 20260501185215 | 73 | 71 | 2.0 | 7.0 | 0.01 | 0.17 | 0.14 | 77 | 1018.2 |